Valparaiso, IN

8:27 PM CDT on July 23, 2017 (GMT -0500)
Porter County Municipal

Weather History for KVPZ - June, 2012

Change the Weather History Date:

Saturday, June 2, 2012

  Actual Average Record
Temperature  
Mean Temperature 59 °F 65 °F  
Max Temperature 73 °F 76 °F 86 °F (2007)
Min Temperature 44 °F 54 °F 38 °F (2003)
Degree Days  
Heating Degree Days 6 3  
Month to date heating degree days 20 6  
Since 1 June heating degree days 6  
Since 1 July heating degree days 6285  
Cooling Degree Days 0 3  
Month to date cooling degree days 0 6  
Year to date cooling degree days 151 53  
Since 1 June cooling degree days 6  
Growing Degree Days 8 (Base 50)    
Moisture  
Dew Point 48 °F    
Average Humidity 66    
Maximum Humidity 93    
Minimum Humidity 41    
Precipitation  
Precipitation 0.06 in 0.13 in 0.28 in (2005)
Month to date precipitation 0.20 0.26  
Year to date precipitation 9.97 13.24  
Sea Level Pressure  
Sea Level Pressure 29.78 in    
Wind  
Wind Speed 11 mph (WSW)    
Max Wind Speed 24 mph    
Max Gust Speed 31 mph    
Visibility 10 miles    
Events Rain    
T = Trace of Precipitation, MM = Missing Value Source: NWS Daily Summary

Daily Weather History Graph

Daily Weather History Graph

Search for Another Location

Airport or City:

Trip Planner

Search our weather history database for the weather conditions in past years. The results will help you decide how hot, cold, wet, or windy it might be!

Date:

Astronomy

Jun. 02, 2012 Rise Set
Actual Time 5:16 AM CDT 8:16 PM CDT
Civil Twilight 4:42 AM CDT 8:49 PM CDT
Nautical Twilight 4:00 AM CDT 9:32 PM CDT
Astronomical Twilight 3:10 AM CDT 10:22 PM CDT
Moon 6:30 PM CDT (6/2) 3:35 AM CDT (6/2)
Length of Visible Light 16h 07m
Length of Day
15h 00m
Waxing Gibbous, 95% of the Moon is Illuminated
Jun 2
Waxing Gibbous
Jun 4
Full
Jun 11
Last Quarter
Jun 19
New
Jun 26
First Quarter

Hourly Weather History & Observations

Time (CDT) Temp. Windchill Dew Point Humidity Pressure Visibility Wind Dir Wind Speed Gust Speed Precip Events Conditions
12:53 AM 45.0 °F - 42.1 °F 90% 29.78 in 10.0 mi Calm Calm - N/A   Clear
1:53 AM 45.0 °F 43.5 °F 43.0 °F 93% 29.77 in 10.0 mi SSW 3.5 mph - N/A   Clear
2:53 AM 46.0 °F 42.5 °F 43.0 °F 89% 29.75 in 10.0 mi WSW 6.9 mph - N/A   Clear
3:53 AM 46.9 °F - 43.0 °F 86% 29.75 in 10.0 mi WSW 6.9 mph - N/A   Clear
4:53 AM 48.9 °F - 44.1 °F 83% 29.76 in 10.0 mi WSW 8.1 mph - N/A   Clear
5:53 AM 50.0 °F - 44.1 °F 80% 29.77 in 10.0 mi SW 9.2 mph - N/A   Clear
6:53 AM 54.0 °F - 46.0 °F 75% 29.78 in 10.0 mi WSW 10.4 mph - N/A   Clear
7:53 AM 59.0 °F - 46.0 °F 62% 29.78 in 10.0 mi West 13.8 mph - N/A   Clear
8:53 AM 63.0 °F - 46.9 °F 56% 29.79 in 10.0 mi WSW 13.8 mph - N/A   Clear
9:53 AM 64.9 °F - 46.9 °F 52% 29.79 in 10.0 mi WSW 13.8 mph - N/A   Clear
10:53 AM 69.1 °F - 46.9 °F 45% 29.79 in 10.0 mi West 16.1 mph 24.2 mph N/A   Clear
11:53 AM 71.1 °F - 46.0 °F 41% 29.78 in 10.0 mi West 17.3 mph 26.5 mph N/A   Partly Cloudy
12:53 PM 71.1 °F - 46.9 °F 42% 29.77 in 10.0 mi West 15.0 mph 23.0 mph N/A   Partly Cloudy
1:53 PM 66.0 °F - 53.1 °F 63% 29.77 in 9.0 mi West 8.1 mph - 0.03 in Rain Light Rain
2:53 PM 60.1 °F - 48.9 °F 67% 29.77 in 8.0 mi SW 11.5 mph 20.7 mph 0.03 in Rain Light Rain
3:53 PM 70.0 °F - 50.0 °F 49% 29.75 in 10.0 mi WSW 11.5 mph - 0.00 in   Clear
4:53 PM 70.0 °F - 50.0 °F 49% 29.75 in 10.0 mi WSW 19.6 mph 28.8 mph N/A   Unknown
5:53 PM 68.0 °F - 50.0 °F 52% 29.76 in 10.0 mi SW 16.1 mph 25.3 mph N/A   Clear
6:53 PM 68.0 °F - 50.0 °F 52% 29.77 in 10.0 mi WSW 15.0 mph - N/A   Clear
7:53 PM 64.9 °F - 51.1 °F 61% 29.78 in 10.0 mi SW 6.9 mph - N/A   Clear
8:53 PM 63.0 °F - 51.1 °F 65% 29.78 in 10.0 mi WSW 9.2 mph - N/A   Clear
9:53 PM 60.1 °F - 52.0 °F 75% 29.80 in 10.0 mi SW 5.8 mph - N/A   Clear
10:53 PM 57.9 °F - 52.0 °F 81% 29.81 in 10.0 mi SW 5.8 mph - N/A   Clear
11:53 PM 57.9 °F - 52.0 °F 81% 29.81 in 10.0 mi SW 6.9 mph - N/A   Clear